Regional Weather Roundup
Issued by NWS

Current Version | Previous Version | Text Only | Print | Product List | Glossary On
Versions: 1 2 3 4 5 6 7 8 9 10 11 12 13 14 15 16 17 18 19 20 21 22 23 24 25 26 27 28 29 30 31 32 33 34 35 36 37 38 39 40 41 42 43 44 45 46 47 48 49 50
527
ASUS43 KOAX 130503
RWRNE

WEATHER ROUNDUP FOR NEBRASKA
NATIONAL WEATHER SERVICE OMAHA NE
1100 PM CST WED DEC 12 2018

NOTES: SATELLITE DATA IS BEING USED TO AUGMENT CLOUD COVER ABOVE
       12000 FEET.
       "FAIR" INDICATES FEW OR NO CLOUDS BELOW 12,000 FEET WITH NO
       SIGNIFICANT WEATHER AND/OR OBSTRUCTIONS TO VISIBILITY.


NEZ001>004-019>022-054>056-130600-
NEBRASKA PANHANDLE

CITY           SKY/WX    TMP DP  RH WIND       PRES   REMARKS
SCOTTSBLUFF    CLOUDY    35  27  72 NW14      29.95R WCI  26
ALLIANCE       CLOUDY    35  30  82 N17G26    29.88R WCI  25
CHADRON        CLOUDY    36  31  82 W18       29.94R WCI  26
GORDON         CLOUDY    36  32  87 NW15G22   29.88R WCI  26
KIMBALL        CLOUDY    31  24  75 NW17G23   29.93R WCI  19
SIDNEY         CLOUDY    35  26  69 N23G32    29.90R WCI  23
$$

NEZ057>060-069>072-079>082-130600-
SOUTHWEST NEBRASKA

CITY           SKY/WX    TMP DP  RH WIND       PRES   REMARKS
NORTH PLATTE   PTCLDY    38  32  79 N21G32    29.83R WCI  28
IMPERIAL       CLOUDY    37  29  72 N26G40    29.86R WCI  25
LEXINGTON      FAIR      36  31  84 NW13      29.80R WCI  27
MCCOOK         CLEAR     31  25  78 NW13      29.83R WCI  21
OGALLALA       MOCLDY    38  31  76 N22G32    29.87R WCI  27
$$

NEZ005>010-023>029-035>040-094-130600-
NORTH CENTRAL NEBRASKA

CITY           SKY/WX    TMP DP  RH WIND       PRES   REMARKS
VALENTINE      CLOUDY    36  33  89 NW20G30   29.83R WCI  25
AINSWORTH      CLOUDY    36  33  91 NW24G33   29.78R WCI  24
BROKEN BOW     FAIR      38  33  82 NW30G40   29.76R WCI  26
O`NEILL        MOCLDY    35  26  71 NW12      29.75R WCI  26
ORD            FAIR      37  31  78 NW15      29.74R WCI  28
THEDFORD       CLOUDY    37  33  87 NW26G33   29.82R WCI  24
$$

NEZ041-046>049-061>064-073>077-083>087-130600-
SOUTH CENTRAL NEBRASKA

CITY           SKY/WX    TMP DP  RH WIND       PRES   REMARKS
GRAND ISLAND   CLOUDY    34  28  79 W10       29.74R WCI  26
AURORA         CLEAR     35  30  83 W9        29.73R WCI  27
HASTINGS       CLEAR     32  26  78 W7        29.75R WCI  26
HEBRON         CLEAR     32  29  88 CALM      29.76S
HOLDREGE       CLEAR     33  28  83 NW9       29.78R WCI  25
KEARNEY        CLEAR     36  29  75 NW14      29.77R WCI  27
YORK           CLEAR     32  30  93 SW9       29.74R WCI  24
$$

NEZ011>018-030>034-042>045-130600-
NORTHEAST NEBRASKA

CITY           SKY/WX    TMP DP  RH WIND       PRES   REMARKS
NORFOLK        PTCLDY    31  29  92 CALM      29.72R
ALBION         CLOUDY    31  28  88 CALM      29.72R
BLAIR          CLEAR     37  31  79 SE9       29.76S WCI  31
COLUMBUS       CLOUDY    35  32  88 S7        29.73S WCI  29
FREMONT        CLEAR     36  31  81 SE6       29.76R WCI  32
TEKAMAH        PTCLDY    27  26  96 CALM      29.78R FOG
WAYNE          CLOUDY    31  27  85 W3        29.73R
$$

NEZ050>053-065>068-078-088>093-130600-
SOUTHEAST NEBRASKA

CITY           SKY/WX    TMP DP  RH WIND       PRES   REMARKS
LINCOLN        CLEAR     29  26  89 SE3       29.77S
OMAHA EPPLEY   CLEAR     34  28  79 S9        29.78S WCI  27
BEATRICE       CLEAR     35  30  84 S6        29.77R WCI  29
FALLS CITY     CLEAR     32  28  85 SE8       29.80S WCI  25
NEBRASKA CITY  PTCLDY    33  28  82 S7        29.79R WCI  27
PLATTSMOUTH    CLEAR     36  31  82 SE9       29.78R WCI  29
$$

NEZ044-045-051>053-067-130600-
OMAHA AREA

CITY           SKY/WX    TMP DP  RH WIND       PRES   REMARKS
OMAHA EPPLEY   CLEAR     34  28  79 S9        29.78S WCI  27
BLAIR          CLEAR     37  31  79 SE9       29.76S WCI  31
FREMONT        CLEAR     36  31  81 SE6       29.76R WCI  32
MILLARD        CLEAR     30  28  94 CALM      29.78S
OFFUTT AFB     CLEAR     29  29 100 E7        29.78R WCI  21
PLATTSMOUTH    CLEAR     36  31  82 SE9       29.78R WCI  29
WAHOO          FAIR      30  29  97 SE5       29.77R WCI  25
$$




USA.gov is the U.S. government's official web portal to all federal, state and local government web resources and services.